Regional Weather Roundup
Issued by NWS

Home | Current Version | Previous Version | Text Only | Print | Product List | Glossary On
Versions: 1 2 3 4 5 6 7 8 9 10 11 12 13 14 15 16 17 18 19 20 21 22 23 24 25 26 27 28 29 30 31 32 33 34 35 36 37 38 39 40 41 42 43 44 45 46 47 48 49 50
000
ASUS43 KFSD 250302
RWRSD

WEATHER ROUNDUP FOR SOUTH DAKOTA
NATIONAL WEATHER SERVICE SIOUX FALLS SD
900 PM CST FRI NOV 24 2017

NOTE: "FAIR" INDICATES FEW OR NO CLOUDS BELOW 12,000 FEET WITH NO
SIGNIFICANT WEATHER AND/OR OBSTRUCTIONS TO VISIBILITY.


SDZ001>005-009-010-012>017-250400-
NORTHWEST AND NORTH CENTRAL SOUTH DAKOTA

CITY           SKY/WX    TMP DP  RH WIND       PRES   REMARKS
BUFFALO          N/A     33  26  75 W7        29.89R WCI  27
FAITH            N/A     34  30  85 W9        29.94R WCI  27
MOBRIDGE       PTCLDY    36  29  75 W3        29.87R
$$

SDZ012>016-024>037-041>051-057-063-072>074-250400-
SOUTHWEST AND SOUTH CENTRAL SOUTH DAKOTA

CITY           SKY/WX    TMP DP  RH WIND       PRES   REMARKS
RAPID CTY ARPT CLEAR     35  25  66 NW9       29.99R WCI  28
PIERRE         CLOUDY    39  34  82 NW10      29.93R
CUSTER         CLEAR     27  16  63 CALM      30.00R
ELLSWORTH AFB  CLEAR     35  25  67 W9        29.98R WCI  27
PHILIP         CLEAR     34  30  85 W3        29.97R
PINE RIDGE     CLEAR     26  21  81 NE6       30.00R WCI  19
SPEARFISH      FAIR      34  25  69 SW8       29.98F WCI  27
WINNER         FAIR      41  30  65 NW7       29.95R
$$

SDZ004>011-016>023-039-040-250400-
NORTHEAST SOUTH DAKOTA

CITY           SKY/WX    TMP DP  RH WIND       PRES   REMARKS
ABERDEEN       CLOUDY    42  33  70 W12       29.87R
WATERTOWN      CLEAR     40  34  79 NW14      29.83R
BROOKINGS      CLEAR     40  33  76 NW13      29.85R
SISSETON         N/A     46  33  60 NW22      29.79R
$$

SDZ017-020-022-023-036>040-048>070-250400-
SOUTHEAST SOUTH DAKOTA

CITY           SKY/WX    TMP DP  RH WIND       PRES   REMARKS
SIOUX FALLS    PTCLDY    40  33  76 NW8       29.86R
HURON          CLOUDY    41  34  76 NW12      29.88R
CHAMBERLAIN    CLEAR     42  35  76 W9        29.93R
MITCHELL       CLEAR     37  31  78 NW10      29.89R
YANKTON        CLEAR     42  33  70 W9        29.89R
$$

ABBREVIATIONS USED IN REMARKS
   TC - TEMPERATURE IN CELSIUS
  WCI - WIND CHILL INDEX
   HX - HEAT INDEX
  VSB - VISIBILITY





USA.gov is the U.S. government's official web portal to all federal, state and local government web resources and services.